VK7ED-13 Richmond AU current weather conditions

sailwx.info

Wind from 325

Air temperature 12.2° C
Dewpoint 12.2° C

Last reported at 2018-Apr-24 18:03 UTC.
Time now 2018-Apr-24 18:32 UTC

Location: S 42°44' E 147°26'.
View on Google Maps.

See reports from other nearby stations

  
Tides and Currents Weather Stations Pressure Air Temp Water Temp Dewpoint Dewpoint Depression Visibility Wind Speed Wind Dir Waves Ship Positions
date/time (UTC)wind fromknots sea level pressurealtimeterstation pressurevisibilityair tempwater tempwave heightnotes
2018-Apr-24 18:03 325 12.2
2018-Apr-24 17:54 12.2
2018-Apr-24 17:45 046 12.2
2018-Apr-24 17:36 247 0 gusting 1 12.2
2018-Apr-24 17:27 258 12.2
2018-Apr-24 17:18 008 12.8
2018-Apr-24 17:09 048 0 gusting 2 12.8
2018-Apr-24 17:00 050 0 gusting 2 12.8
2018-Apr-24 16:51 048 12.8
2018-Apr-24 16:42 12.8
2018-Apr-24 16:33 12.8
2018-Apr-24 16:24 12.8
2018-Apr-24 16:15 13.3
2018-Apr-24 16:06 13.3
2018-Apr-24 15:57 360 13.3
2018-Apr-24 15:48 045 13.9
2018-Apr-24 15:39 067 13.9
2018-Apr-24 15:30 334 0 gusting 3 14.4
2018-Apr-24 15:21 293 0 gusting 4 14.4
2018-Apr-24 15:12 342 1 gusting 4 14.4
2018-Apr-24 15:03 319 1 gusting 3 15.0
2018-Apr-24 14:54 314 3 gusting 5 15.0
2018-Apr-24 14:45 309 3 gusting 7 15.0
2018-Apr-24 14:36 316 3 gusting 15 14.4
2018-Apr-24 14:27 323 4 gusting 7 14.4
2018-Apr-24 14:18 351 3 gusting 11 14.4
2018-Apr-24 14:09 353 1 gusting 11 14.4
2018-Apr-24 14:00 344 1 gusting 10 14.4
2018-Apr-24 13:51 315 1 gusting 4 14.4
2018-Apr-24 13:42 299 2 gusting 5 15.0
2018-Apr-24 13:33 317 1 gusting 5 15.0
2018-Apr-24 13:24 312 2 gusting 6 15.0
2018-Apr-24 13:15 297 3 gusting 6 15.6
2018-Apr-24 13:06 296 3 gusting 7 15.6
2018-Apr-24 12:57 300 4 gusting 7 16.1
2018-Apr-24 12:48 286 6 gusting 11 16.1
2018-Apr-24 12:39 281 5 gusting 29 16.7
2018-Apr-24 12:30 277 5 gusting 11 16.7
2018-Apr-24 12:21 273 6 gusting 12 16.7
2018-Apr-24 12:12 283 6 gusting 16 17.2
2018-Apr-24 12:03 291 5 gusting 14 17.2
2018-Apr-24 11:54 286 2 gusting 13 17.2
2018-Apr-24 11:45 266 5 gusting 9 17.2
2018-Apr-24 11:36 272 6 gusting 18 17.2
2018-Apr-24 11:27 286 6 gusting 14 17.2
2018-Apr-24 11:18 280 5 gusting 18 17.8
2018-Apr-24 11:09 295 4 gusting 13 17.8
2018-Apr-24 11:00 290 4 gusting 12 17.8
2018-Apr-24 10:51 303 4 gusting 11 17.8
2018-Apr-24 10:42 299 5 gusting 23 17.8
2018-Apr-24 10:33 312 6 gusting 22 18.3
2018-Apr-24 10:24 311 4 gusting 13 18.3
2018-Apr-24 10:15 300 3 gusting 17 17.8
2018-Apr-24 10:06 313 3 gusting 12 17.8
2018-Apr-24 09:57 310 2 gusting 12 17.8
2018-Apr-24 09:48 295 4 gusting 7 18.3
2018-Apr-24 09:39 298 5 gusting 17 18.3
2018-Apr-24 09:30 293 3 gusting 14 18.3
2018-Apr-24 09:21 253 1 gusting 9 17.8
2018-Apr-24 09:12 188 0 gusting 4 16.7
2018-Apr-24 09:03 321 1 gusting 4 16.7
2018-Apr-24 08:54 344 0 gusting 6 16.7
2018-Apr-24 08:45 293 1 gusting 3 17.2
2018-Apr-24 08:36 329 1 gusting 6 17.2
2018-Apr-24 08:27 345 2 gusting 6 17.8
2018-Apr-24 08:18 007 3 gusting 10 17.8
2018-Apr-24 08:09 003 5 gusting 13 17.8
2018-Apr-24 08:00 001 6 gusting 12 17.8
2018-Apr-24 07:51 359 6 gusting 21 18.3
2018-Apr-24 07:42 357 6 gusting 21 18.3
2018-Apr-24 07:33 351 6 gusting 23 18.3
2018-Apr-24 07:24 354 7 gusting 14 18.9
2018-Apr-24 07:15 356 7 gusting 19 18.9
2018-Apr-24 07:06 356 7 gusting 15 19.4
2018-Apr-24 06:57 348 7 gusting 15 19.4
2018-Apr-24 06:48 337 7 gusting 18 20.0
2018-Apr-24 06:39 340 8 gusting 26 20.0
2018-Apr-24 06:30 348 9 gusting 19 20.0
2018-Apr-24 06:21 347 8 gusting 19 20.6
2018-Apr-24 06:12 349 9 gusting 19 20.6
2018-Apr-24 06:03 352 9 gusting 31 21.1
2018-Apr-24 05:54 345 9 gusting 21 21.1
2018-Apr-24 05:45 352 8 gusting 19 21.7
2018-Apr-24 05:36 349 7 gusting 19 21.7
2018-Apr-24 05:27 350 8 gusting 14 22.2
2018-Apr-24 05:18 355 7 gusting 16 22.2
2018-Apr-24 05:09 360 7 gusting 19 22.8
2018-Apr-24 05:00 360 6 gusting 15 22.2
2018-Apr-24 04:51 357 6 gusting 14 21.7
2018-Apr-24 04:42 359 8 gusting 18 22.2
2018-Apr-24 04:33 349 7 gusting 29 21.7
2018-Apr-24 04:24 347 6 gusting 13 22.2
2018-Apr-24 04:15 360 5 gusting 15 22.2
2018-Apr-24 04:06 319 6 gusting 9 22.2
2018-Apr-24 03:57 313 6 gusting 12 22.2
2018-Apr-24 03:48 335 6 gusting 18 22.2
2018-Apr-24 03:39 345 6 gusting 13 22.2
2018-Apr-24 03:30 344 6 gusting 16 21.7
2018-Apr-24 03:21 350 6 gusting 19 21.7
2018-Apr-24 03:12 339 6 gusting 13 21.7
2018-Apr-24 03:03 331 5 gusting 14 21.1
2018-Apr-24 02:54 348 5 gusting 12 20.6
2018-Apr-24 02:45 348 5 gusting 14 20.6
2018-Apr-24 02:36 317 4 gusting 13 19.4
2018-Apr-24 02:27 321 3 gusting 10 18.9
2018-Apr-24 02:18 320 3 gusting 7 18.3
2018-Apr-24 02:09 302 2 gusting 7 18.3
2018-Apr-24 02:00 248 4 gusting 10 17.8
2018-Apr-24 01:51 254 4 gusting 12 17.2
2018-Apr-24 01:42 249 4 gusting 10 16.7
2018-Apr-24 01:33 251 3 gusting 7 16.7
2018-Apr-24 01:24 248 1 gusting 7 16.1
2018-Apr-24 01:15 277 0 gusting 4 16.1
2018-Apr-24 01:06 331 0 gusting 3 15.6
2018-Apr-24 00:57 328 1 gusting 7 15.6
2018-Apr-24 00:48 316 0 gusting 4 15.6
2018-Apr-24 00:39 308 0 gusting 2 15.0
2018-Apr-24 00:30 295 0 gusting 3 15.0
2018-Apr-24 00:21 274 1 gusting 2 14.4
2018-Apr-24 00:12 230 1 gusting 4 14.4
2018-Apr-24 00:03 240 13.9
2018-Apr-23 23:54 287 2 gusting 3 13.3
2018-Apr-23 23:45 313 2 gusting 9 13.3
2018-Apr-23 23:36 311 0 gusting 6 12.8
2018-Apr-23 23:27 310 12.8
2018-Apr-23 23:18 351 0 gusting 2 12.2
2018-Apr-23 23:09 319 0 gusting 6 11.7
2018-Apr-23 23:00 286 0 gusting 2 11.7
2018-Apr-23 22:51 227 0 gusting 2 11.1
2018-Apr-23 22:42 255 0 gusting 2 11.1
2018-Apr-23 22:33 233 0 gusting 2 10.6
2018-Apr-23 22:24 257 10.6
2018-Apr-23 22:15 313 10.6
2018-Apr-23 22:06 249 0 gusting 2 10.6
2018-Apr-23 21:57 230 0 gusting 2 10.0
2018-Apr-23 21:48 269 0 gusting 2 10.0
2018-Apr-23 21:39 269 0 gusting 3 10.0
2018-Apr-23 21:30 243 1 gusting 2 10.0
2018-Apr-23 21:21 264 1 gusting 2 9.4
2018-Apr-23 21:12 254 0 gusting 4 9.4
2018-Apr-23 21:03 251 0 gusting 1 8.9
2018-Apr-23 20:54 233 8.9
2018-Apr-23 20:45 254 0 gusting 4 8.9
2018-Apr-23 20:36 248 8.9
2018-Apr-23 20:27 252 0 gusting 1 8.9
2018-Apr-23 20:18 275 8.9
2018-Apr-23 20:09 217 0 gusting 2 8.9
2018-Apr-23 20:00 234 0 gusting 2 8.9
2018-Apr-23 19:51 228 0 gusting 3 8.9
2018-Apr-23 19:42 227 0 gusting 2 8.3
2018-Apr-23 19:33 219 0 gusting 2 8.9
2018-Apr-23 19:24 247 0 gusting 3 8.3
2018-Apr-23 19:15 237 8.3
2018-Apr-23 19:06 8.3
2018-Apr-23 18:57 050 8.3
2018-Apr-23 18:48 094 0 gusting 2 8.3
2018-Apr-23 18:39 092 0 gusting 2 8.3
2018-Apr-23 18:30 100 0 gusting 2 7.8
2018-Apr-23 18:21 079 7.2
2018-Apr-23 18:12 7.2
2018-Apr-23 18:03 235 7.2
2018-Apr-23 17:54 258 0 gusting 3 7.2
2018-Apr-23 17:45 254 0 gusting 2 7.2
2018-Apr-23 17:36 354 0 gusting 2 7.2
2018-Apr-23 17:27 7.2
2018-Apr-23 17:19 7.2
2018-Apr-23 17:09 270 0 gusting 1 7.2
2018-Apr-23 17:00 337 1 gusting 3 7.2
2018-Apr-23 16:51 332 0 gusting 3 7.2
2018-Apr-23 16:42 287 0 gusting 2 7.2
2018-Apr-23 16:33 265 0 gusting 1 7.2
2018-Apr-23 16:24 249 7.2
2018-Apr-23 16:15 062 0 gusting 1 7.2
2018-Apr-23 16:06 040 7.8
2018-Apr-23 15:57 270 7.8
2018-Apr-23 15:48 7.8
2018-Apr-23 15:39 7.8
2018-Apr-23 15:30 046 7.8
2018-Apr-23 15:21 072 7.8
2018-Apr-23 15:12 8.3
2018-Apr-23 15:03 074 0 gusting 0 8.3
2018-Apr-23 14:54 320 0 gusting 1 8.3
2018-Apr-23 14:45 315 1 gusting 2 8.3
2018-Apr-23 14:36 315 1 gusting 2 8.3
2018-Apr-23 14:27 316 0 gusting 4 8.3
2018-Apr-23 14:18 294 8.3
2018-Apr-23 14:09 8.3
2018-Apr-23 14:00 8.3
2018-Apr-23 13:51 8.3
2018-Apr-23 13:42 024 8.3
2018-Apr-23 13:33 360 8.9
2018-Apr-23 13:24 029 8.9
2018-Apr-23 13:15 270 0 gusting 1 8.9
2018-Apr-23 13:06 243 0 gusting 1 9.4
2018-Apr-23 12:57 257 0 gusting 1 9.4
2018-Apr-23 12:48 239 9.4
2018-Apr-23 12:39 042 0 gusting 2 9.4
2018-Apr-23 12:30 034 0 gusting 2 10.0
2018-Apr-23 12:21 318 0 gusting 1 10.0
2018-Apr-23 12:12 274 0 gusting 3 10.0
2018-Apr-23 12:03 10.0
2018-Apr-23 11:54 10.0
2018-Apr-23 11:45 10.0
2018-Apr-23 11:36 318 0 gusting 2 10.0
2018-Apr-23 11:27 312 1 gusting 5 10.0
2018-Apr-23 11:18 316 0 gusting 3 10.0
2018-Apr-23 11:09 10.0
2018-Apr-23 11:00 063 0 gusting 0 10.6
2018-Apr-23 10:51 225 1 gusting 3 10.6
2018-Apr-23 10:42 234 1 gusting 3 11.1
2018-Apr-23 10:33 227 0 gusting 2 11.1
2018-Apr-23 10:24 232 0 gusting 1 11.1
2018-Apr-23 10:15 246 0 gusting 1 11.7
2018-Apr-23 10:06 128 0 gusting 4 11.7
2018-Apr-23 09:57 126 0 gusting 3 12.2
2018-Apr-23 09:48 132 0 gusting 1 12.2
2018-Apr-23 09:39 142 0 gusting 5 12.2
2018-Apr-23 09:30 141 0 gusting 5 12.2
2018-Apr-23 09:21 144 1 gusting 4 12.2
2018-Apr-23 09:12 138 0 gusting 3 12.8
2018-Apr-23 09:03 110 1 gusting 3 12.8
2018-Apr-23 08:54 144 1 gusting 5 13.3
2018-Apr-23 08:45 141 1 gusting 4 13.3
2018-Apr-23 08:36 140 0 gusting 3 13.3
2018-Apr-23 08:27 131 0 gusting 3 13.3
2018-Apr-23 08:18 095 0 gusting 3 13.9
2018-Apr-23 08:09 084 1 gusting 3 13.9
2018-Apr-23 08:00 151 1 gusting 5 14.4
2018-Apr-23 07:51 157 0 gusting 5 14.4
2018-Apr-23 07:42 153 1 gusting 6 14.4
2018-Apr-23 07:33 146 2 gusting 8 15.0
2018-Apr-23 07:24 143 2 gusting 7 15.0
2018-Apr-23 07:15 135 2 gusting 12 15.0
2018-Apr-23 07:06 138 2 gusting 12 15.6
2018-Apr-23 06:57 142 2 gusting 16 16.1
2018-Apr-23 06:48 143 2 gusting 17 16.1
2018-Apr-23 06:39 138 3 gusting 18 16.7
2018-Apr-23 06:30 136 4 gusting 13 16.7
2018-Apr-23 06:21 143 3 gusting 8 16.7
2018-Apr-23 06:12 139 3 gusting 18 17.2
2018-Apr-23 06:03 147 3 gusting 53 17.2
2018-Apr-23 05:54 149 2 gusting 8 17.8
2018-Apr-23 05:45 142 4 gusting 18 17.8
2018-Apr-23 05:36 135 5 gusting 34 17.8
2018-Apr-23 05:27 138 4 gusting 17 18.3
2018-Apr-23 05:18 134 4 gusting 11 18.3
2018-Apr-23 05:09 132 3 gusting 11 18.3
2018-Apr-23 05:00 135 4 gusting 10 18.9
2018-Apr-23 04:51 129 4 gusting 9 19.4
2018-Apr-23 04:42 134 4 gusting 11 19.4
2018-Apr-23 04:33 133 3 gusting 9 20.0
2018-Apr-23 04:24 137 2 gusting 10 20.0
2018-Apr-23 04:15 134 1 gusting 6 20.0
2018-Apr-23 04:06 235 0 gusting 3 20.0
2018-Apr-23 03:57 233 1 gusting 3 20.0
2018-Apr-23 03:48 212 1 gusting 5 20.0
2018-Apr-23 03:39 202 0 gusting 5 20.0
2018-Apr-23 03:30 254 1 gusting 3 20.0
2018-Apr-23 03:21 250 1 gusting 11 19.4
2018-Apr-23 03:12 249 1 gusting 4 19.4
2018-Apr-23 03:03 233 3 gusting 6 19.4
2018-Apr-23 02:54 224 3 gusting 7 18.9
2018-Apr-23 02:45 246 3 gusting 6 18.9
2018-Apr-23 02:36 244 4 gusting 11 18.9
2018-Apr-23 02:27 244 4 gusting 13 18.3
2018-Apr-23 02:18 262 3 gusting 13 18.3
2018-Apr-23 02:09 272 3 gusting 10 18.3
2018-Apr-23 02:00 272 4 gusting 13 17.8
2018-Apr-23 01:51 273 4 gusting 14 17.8
2018-Apr-23 01:42 277 5 gusting 18 17.8
2018-Apr-23 01:33 288 5 gusting 11 17.2
2018-Apr-23 01:24 274 5 gusting 15 17.2
2018-Apr-23 01:15 281 5 gusting 14 16.7
2018-Apr-23 01:06 287 4 gusting 11 16.1
2018-Apr-23 00:57 264 2 gusting 11 16.1
2018-Apr-23 00:48 310 2 gusting 9 15.6
2018-Apr-23 00:39 297 3 gusting 9 15.6
2018-Apr-23 00:30 266 3 gusting 7 15.0
2018-Apr-23 00:21 274 3 gusting 6 15.0
2018-Apr-23 00:12 310 3 gusting 7 14.4
2018-Apr-23 00:03 285 2 gusting 7 13.9
2018-Apr-22 23:54 289 4 gusting 11 13.3
2018-Apr-22 23:45 301 4 gusting 11 12.8
2018-Apr-22 23:36 305 3 gusting 8 12.2
2018-Apr-22 23:27 316 3 gusting 8 11.1
2018-Apr-22 23:18 320 2 gusting 6 10.6
2018-Apr-22 23:09 319 2 gusting 5 10.0
2018-Apr-22 23:00 321 2 gusting 5 10.0
2018-Apr-22 22:51 341 1 gusting 6 9.4
2018-Apr-22 22:42 326 1 gusting 3 9.4
2018-Apr-22 22:33 298 1 gusting 3 8.9
2018-Apr-22 22:24 339 2 gusting 6 8.9
2018-Apr-22 22:15 048 1 gusting 6 8.9
2018-Apr-22 22:06 326 2 gusting 3 8.3
2018-Apr-22 21:57 333 2 gusting 4 7.8
2018-Apr-22 21:48 329 2 gusting 7 7.8
2018-Apr-22 21:39 331 2 gusting 6 7.8
2018-Apr-22 21:30 357 1 gusting 5 7.8
2018-Apr-22 21:21 325 0 gusting 3 7.2
2018-Apr-22 21:12 005 0 gusting 2 7.2
2018-Apr-22 21:03 317 0 gusting 3 7.2
2018-Apr-22 20:54 147 0 gusting 2 7.2
2018-Apr-22 20:45 055 1 gusting 3 7.2
2018-Apr-22 20:36 326 1 gusting 4 7.2
2018-Apr-22 20:27 351 1 gusting 6 7.8
2018-Apr-22 20:18 009 1 gusting 5 7.8
2018-Apr-22 20:09 005 2 gusting 5 7.8
2018-Apr-22 20:00 360 1 gusting 4 7.8
2018-Apr-22 19:51 339 3 gusting 6 7.8
2018-Apr-22 19:42 344 3 gusting 6 7.8
2018-Apr-22 19:33 354 2 gusting 8 8.3
2018-Apr-22 19:24 339 2 gusting 10 8.3
2018-Apr-22 19:15 333 2 gusting 10 8.3
2018-Apr-22 19:06 342 4 gusting 6 8.3
2018-Apr-22 18:57 356 5 gusting 10 8.3
2018-Apr-22 18:48 353 4 gusting 13 8.3
2018-Apr-22 18:39 357 2 gusting 15 8.9
2018-Apr-22 18:30 016 2 gusting 6 8.9
2018-Apr-22 18:21 357 2 gusting 7 8.9
2018-Apr-22 18:12 346 2 gusting 6 8.9
2018-Apr-22 18:03 342 2 gusting 6 8.9